SFR205 FAOR-FALE

Flight info

Callsign SFR205
Flight time N/A
Altitude 33000
Route APDAK1B APDAK UQ48 APMAT APMAT1B
Aircraft B738/M-SDE2E3FGHIRWXY/LB1

Departure

Time 2026-05-05 13:10
Airport O.R. Tambo International Airport (FAOR)

Arrival

Time N/A
Airport King Shaka International Airport (FALE)
Time Latitude Longitude Altitude Speed Heading
2026-05-05 12:31 -26.13685 28.23107 5549 ft 0 kts
2026-05-05 13:00 -26.13699 28.23105 5551 ft 4 kts
2026-05-05 13:01 -26.13741 28.23065 5550 ft 1 kts 96°
2026-05-05 13:01 -26.13741 28.23060 5550 ft 0 kts 96°
2026-05-05 13:04 -26.13741 28.23061 5550 ft 1 kts 96°
2026-05-05 13:05 -26.13743 28.23092 5549 ft 6 kts 94°
2026-05-05 13:05 -26.13747 28.23138 5547 ft 6 kts 94°
2026-05-05 13:05 -26.13750 28.23184 5546 ft 6 kts 100°
2026-05-05 13:05 -26.13757 28.23229 5549 ft 6 kts 99°
2026-05-05 13:06 -26.13764 28.23278 5546 ft 8 kts 106°
2026-05-05 13:06 -26.13810 28.23326 5546 ft 10 kts 158°
2026-05-05 13:06 -26.13859 28.23369 5547 ft 7 kts 114°
2026-05-05 13:06 -26.13863 28.23383 5547 ft 0 kts 108°
2026-05-05 13:07 -26.13872 28.23410 5559 ft 8 kts 109°
2026-05-05 13:07 -26.13889 28.23475 5560 ft 8 kts 105°
2026-05-05 13:08 -26.13898 28.23511 5561 ft 1 kts 106°
2026-05-05 13:08 -26.13899 28.23514 5560 ft 1 kts 106°
2026-05-05 13:08 -26.13899 28.23515 5560 ft 1 kts 106°
2026-05-05 13:08 -26.13911 28.23559 5562 ft 8 kts 106°
2026-05-05 13:09 -26.13933 28.23610 5562 ft 7 kts 128°
2026-05-05 13:09 -26.13936 28.23643 5563 ft 7 kts 62°
2026-05-05 13:09 -26.13810 28.23691 5560 ft 42 kts 15°
2026-05-05 13:09 -26.13309 28.23842 5548 ft 106 kts 16°
2026-05-05 13:10 -26.12430 28.24118 5539 ft 156 kts 17°
2026-05-05 13:10 -26.11287 28.24525 5737 ft 181 kts 17°
2026-05-05 13:10 -26.10091 28.24990 6209 ft 188 kts 20°
2026-05-05 13:10 -26.08860 28.25451 6940 ft 184 kts
2026-05-05 13:11 -26.07584 28.25786 7456 ft 196 kts
2026-05-05 13:11 -26.06185 28.26163 7631 ft 221 kts
2026-05-05 13:11 -26.04626 28.26684 7778 ft 250 kts 22°
2026-05-05 13:11 -26.03260 28.28062 8091 ft 282 kts 52°
2026-05-05 13:12 -26.02466 28.30124 8705 ft 301 kts 74°
2026-05-05 13:12 -26.02486 28.32493 9482 ft 315 kts 101°
2026-05-05 13:12 -26.03393 28.34744 10198 ft 327 kts 122°
2026-05-05 13:12 -26.04794 28.36840 10495 ft 350 kts 128°
2026-05-05 13:13 -26.06408 28.38973 10811 ft 368 kts 129°
2026-05-05 13:13 -26.08098 28.41142 11419 ft 374 kts 129°
2026-05-05 13:13 -26.09807 28.43344 12119 ft 378 kts 129°
2026-05-05 13:13 -26.11525 28.45589 12774 ft 383 kts 128°
2026-05-05 13:14 -26.13255 28.47879 13449 ft 388 kts 128°
2026-05-05 13:14 -26.14987 28.50195 14108 ft 391 kts 128°
2026-05-05 13:14 -26.16731 28.52542 14707 ft 395 kts 128°
2026-05-05 13:14 -26.18484 28.54912 15023 ft 398 kts 128°
2026-05-05 13:15 -26.20251 28.57304 15142 ft 404 kts 128°
2026-05-05 13:15 -26.22041 28.59732 15742 ft 405 kts 128°
2026-05-05 13:15 -26.23812 28.62134 16511 ft 405 kts 128°
2026-05-05 13:15 -26.25630 28.64602 17136 ft 409 kts 128°
2026-05-05 13:16 -26.27444 28.67068 17660 ft 415 kts 128°
2026-05-05 13:16 -26.29267 28.69546 18115 ft 422 kts 128°
2026-05-05 13:16 -26.31136 28.72087 18640 ft 425 kts 128°
2026-05-05 13:16 -26.33012 28.74638 19179 ft 427 kts 129°
2026-05-05 13:17 -26.34897 28.77204 19692 ft 429 kts 129°
2026-05-05 13:17 -26.36799 28.79794 20186 ft 433 kts 129°
2026-05-05 13:17 -26.38709 28.82397 20685 ft 436 kts 129°
2026-05-05 13:17 -26.40640 28.85030 21197 ft 439 kts 129°
2026-05-05 13:18 -26.42587 28.87686 21703 ft 442 kts 129°
2026-05-05 13:18 -26.44540 28.90352 22184 ft 446 kts 129°
2026-05-05 13:18 -26.46507 28.93040 22654 ft 449 kts 129°
2026-05-05 13:18 -26.48488 28.95748 23106 ft 452 kts 129°
2026-05-05 13:19 -26.50485 28.98478 23568 ft 455 kts 129°
2026-05-05 13:19 -26.52496 29.01230 23946 ft 458 kts 129°
2026-05-05 13:19 -26.54513 29.03992 24314 ft 461 kts 129°
2026-05-05 13:19 -26.56641 29.06689 24661 ft 464 kts 134°
2026-05-05 13:20 -26.58897 29.09235 25042 ft 467 kts 136°
2026-05-05 13:20 -26.61239 29.11767 25429 ft 469 kts 137°
2026-05-05 13:20 -26.63607 29.14305 25762 ft 473 kts 136°
2026-05-05 13:20 -26.65983 29.16872 26102 ft 476 kts 136°
2026-05-05 13:21 -26.68358 29.19466 26450 ft 479 kts 136°
2026-05-05 13:21 -26.70736 29.22087 26859 ft 479 kts 136°
2026-05-05 13:21 -26.73100 29.24708 27351 ft 478 kts 135°
2026-05-05 13:21 -26.75459 29.27330 27755 ft 479 kts 136°
2026-05-05 13:22 -26.77826 29.29963 28135 ft 481 kts 136°
2026-05-05 13:22 -26.80201 29.32605 28584 ft 481 kts 136°
2026-05-05 13:22 -26.82576 29.35247 29088 ft 479 kts 136°
2026-05-05 13:22 -26.84900 29.37834 29736 ft 473 kts 136°
2026-05-05 13:23 -26.87230 29.40428 30229 ft 471 kts 136°
2026-05-05 13:23 -26.89558 29.43021 30523 ft 473 kts 136°
2026-05-05 13:23 -26.91945 29.45593 30770 ft 476 kts 141°
2026-05-05 13:23 -26.94569 29.47845 31066 ft 475 kts 147°
2026-05-05 13:24 -26.97289 29.49957 31426 ft 475 kts 148°
2026-05-05 13:24 -26.99996 29.52006 31771 ft 474 kts 148°
2026-05-05 13:24 -27.02733 29.54076 32064 ft 475 kts 149°
2026-05-05 13:24 -27.05473 29.56167 32391 ft 476 kts 148°
2026-05-05 13:25 -27.08197 29.58270 32777 ft 474 kts 148°
2026-05-05 13:25 -27.10912 29.60382 32948 ft 478 kts 148°
2026-05-05 13:25 -27.16398 29.64679 32934 ft 480 kts 147°
2026-05-05 13:26 -27.21834 29.68954 32920 ft 473 kts 148°
2026-05-05 13:26 -27.27235 29.73200 32955 ft 474 kts 147°
2026-05-05 13:27 -27.32665 29.77470 32932 ft 477 kts 147°
2026-05-05 13:27 -27.38122 29.81767 32930 ft 480 kts 147°
2026-05-05 13:28 -27.42695 29.85372 32920 ft 487 kts 148°
2026-05-05 13:28 -27.48320 29.89811 32935 ft 500 kts 148°
2026-05-05 13:29 -27.54904 29.95021 32557 ft 490 kts 147°
2026-05-05 13:29 -27.56741 29.96476 32355 ft 486 kts 147°
2026-05-05 13:29 -27.59503 29.98664 31992 ft 482 kts 147°
2026-05-05 13:30 -27.62237 30.00829 31631 ft 479 kts 147°
2026-05-05 13:30 -27.64956 30.02984 31269 ft 476 kts 147°
2026-05-05 13:30 -27.67663 30.05131 30898 ft 473 kts 147°
2026-05-05 13:30 -27.70338 30.07257 30705 ft 465 kts 147°
2026-05-05 13:31 -27.72971 30.09357 30383 ft 462 kts 147°
2026-05-05 13:31 -27.75588 30.11446 30043 ft 459 kts 147°
2026-05-05 13:31 -27.78186 30.13523 29651 ft 456 kts 147°
2026-05-05 13:31 -27.80729 30.15556 29258 ft 452 kts 147°
2026-05-05 13:32 -27.83288 30.17603 28864 ft 449 kts 147°
2026-05-05 13:32 -27.85836 30.19642 28482 ft 446 kts 147°
2026-05-05 13:32 -27.88359 30.21662 28113 ft 443 kts 147°
2026-05-05 13:32 -27.90868 30.23672 27727 ft 440 kts 147°
2026-05-05 13:33 -27.93358 30.25667 27372 ft 438 kts 146°
2026-05-05 13:33 -27.95838 30.27655 26995 ft 435 kts 146°
2026-05-05 13:33 -27.98301 30.29632 26623 ft 433 kts 146°
2026-05-05 13:33 -28.00756 30.31603 26252 ft 431 kts 146°
2026-05-05 13:34 -28.03196 30.33563 25890 ft 429 kts 146°
2026-05-05 13:34 -28.05625 30.35515 25521 ft 428 kts 146°
2026-05-05 13:34 -28.08049 30.37465 25152 ft 426 kts 146°
2026-05-05 13:34 -28.10462 30.39406 24773 ft 425 kts 146°
2026-05-05 13:35 -28.12875 30.41350 24398 ft 424 kts 146°
2026-05-05 13:35 -28.15246 30.43260 24051 ft 423 kts 146°
2026-05-05 13:35 -28.17643 30.45192 23674 ft 423 kts 146°
2026-05-05 13:35 -28.20037 30.47123 23264 ft 422 kts 146°
2026-05-05 13:36 -28.22430 30.49053 22860 ft 421 kts 146°
2026-05-05 13:36 -28.24805 30.50972 22481 ft 418 kts 146°
2026-05-05 13:36 -28.27165 30.52880 22111 ft 416 kts 146°
2026-05-05 13:36 -28.29515 30.54780 21748 ft 413 kts 146°
2026-05-05 13:37 -28.31852 30.56669 21393 ft 411 kts 146°
2026-05-05 13:37 -28.34177 30.58550 21088 ft 406 kts 146°
2026-05-05 13:37 -28.36461 30.60398 20834 ft 402 kts 146°
2026-05-05 13:37 -28.38740 30.62242 20501 ft 400 kts 146°
2026-05-05 13:38 -28.40998 30.64079 20168 ft 399 kts 146°
2026-05-05 13:38 -28.43225 30.65883 19815 ft 398 kts 146°
2026-05-05 13:38 -28.45510 30.67731 19433 ft 398 kts 146°
2026-05-05 13:38 -28.47733 30.69531 19088 ft 397 kts 146°
2026-05-05 13:39 -28.49975 30.71349 18741 ft 395 kts 146°
2026-05-05 13:39 -28.52214 30.73166 18358 ft 395 kts 146°
2026-05-05 13:39 -28.54447 30.74981 17987 ft 394 kts 145°
2026-05-05 13:39 -28.56670 30.76789 17612 ft 392 kts 146°
2026-05-05 13:40 -28.58890 30.78594 17231 ft 391 kts 146°
2026-05-05 13:40 -28.61093 30.80387 16872 ft 389 kts 145°
2026-05-05 13:40 -28.63288 30.82175 16518 ft 387 kts 145°
2026-05-05 13:40 -28.65468 30.83947 16113 ft 383 kts 145°
2026-05-05 13:41 -28.67618 30.85709 15832 ft 378 kts 145°
2026-05-05 13:41 -28.69746 30.87452 15456 ft 373 kts 145°
2026-05-05 13:41 -28.71856 30.89172 15115 ft 372 kts 146°
2026-05-05 13:41 -28.73957 30.90880 14777 ft 369 kts 145°
2026-05-05 13:42 -28.76039 30.92576 14417 ft 365 kts 145°
2026-05-05 13:42 -28.78085 30.94241 14138 ft 360 kts 145°
2026-05-05 13:42 -28.80125 30.95898 13814 ft 358 kts 147°
2026-05-05 13:42 -28.82163 30.97462 13524 ft 355 kts 148°
2026-05-05 13:43 -28.84233 30.99008 13196 ft 354 kts 149°
2026-05-05 13:43 -28.86289 31.00537 12855 ft 352 kts 148°
2026-05-05 13:43 -28.88333 31.02063 12527 ft 351 kts 148°
2026-05-05 13:43 -28.90367 31.03589 12199 ft 349 kts 148°
2026-05-05 13:44 -28.92396 31.05118 11853 ft 349 kts 148°
2026-05-05 13:44 -28.94420 31.06646 11529 ft 347 kts 148°
2026-05-05 13:44 -28.96426 31.08163 11198 ft 345 kts 148°
2026-05-05 13:44 -28.98421 31.09674 10901 ft 343 kts 148°
2026-05-05 13:45 -29.00416 31.11182 10546 ft 343 kts 148°
2026-05-05 13:45 -29.02375 31.12670 10323 ft 331 kts 148°
2026-05-05 13:45 -29.04248 31.14094 10160 ft 317 kts 149°
2026-05-05 13:45 -29.06048 31.15462 10007 ft 304 kts 149°
2026-05-05 13:46 -29.07769 31.16773 9859 ft 291 kts 149°
2026-05-05 13:46 -29.09401 31.18008 9780 ft 278 kts 149°
2026-05-05 13:46 -29.10997 31.19222 9628 ft 275 kts 149°
2026-05-05 13:46 -29.12599 31.20436 9460 ft 278 kts 149°
2026-05-05 13:47 -29.14222 31.21668 9212 ft 281 kts 148°
2026-05-05 13:47 -29.15857 31.22908 8937 ft 281 kts 148°
2026-05-05 13:47 -29.17477 31.24139 8647 ft 276 kts 148°
2026-05-05 13:47 -29.19062 31.25346 8361 ft 270 kts 148°
2026-05-05 13:48 -29.20607 31.26528 8114 ft 264 kts 148°
2026-05-05 13:48 -29.22123 31.27680 7880 ft 258 kts 148°
2026-05-05 13:48 -29.23584 31.28794 7673 ft 247 kts 148°
2026-05-05 13:48 -29.24981 31.29859 7440 ft 236 kts 148°
2026-05-05 13:49 -29.26301 31.30864 7216 ft 225 kts 148°
2026-05-05 13:49 -29.27589 31.31847 6983 ft 219 kts 148°
2026-05-05 13:49 -29.28853 31.32810 6795 ft 216 kts 148°
2026-05-05 13:49 -29.30106 31.33766 6582 ft 215 kts 148°
2026-05-05 13:50 -29.31354 31.34717 6388 ft 215 kts 148°
2026-05-05 13:50 -29.32648 31.35535 6152 ft 211 kts 169°
2026-05-05 13:50 -29.34023 31.35371 5919 ft 195 kts 214°
2026-05-05 13:50 -29.35159 31.34556 5747 ft 194 kts 218°
2026-05-05 13:51 -29.36283 31.33666 5542 ft 199 kts 219°
2026-05-05 13:51 -29.37397 31.32734 5332 ft 202 kts 220°
2026-05-05 13:51 -29.38518 31.31769 5102 ft 201 kts 220°
2026-05-05 13:51 -29.39601 31.30828 5106 ft 191 kts 220°
2026-05-05 13:52 -29.40681 31.29880 4879 ft 198 kts 220°
2026-05-05 13:52 -29.41793 31.28905 4628 ft 203 kts 219°
2026-05-05 13:52 -29.42911 31.27926 4367 ft 201 kts 219°
2026-05-05 13:52 -29.44011 31.26962 4090 ft 195 kts 219°
2026-05-05 13:53 -29.45064 31.26040 3842 ft 185 kts 219°
2026-05-05 13:53 -29.46039 31.25186 3633 ft 170 kts 219°
2026-05-05 13:53 -29.46965 31.24374 3419 ft 166 kts 219°
2026-05-05 13:53 -29.47874 31.23576 3203 ft 165 kts 217°
2026-05-05 13:54 -29.48781 31.22781 2983 ft 162 kts 217°
2026-05-05 13:54 -29.49674 31.21999 2771 ft 161 kts 216°
2026-05-05 13:54 -29.50575 31.21210 2555 ft 164 kts 216°
2026-05-05 13:54 -29.51475 31.20421 2348 ft 162 kts 216°
2026-05-05 13:55 -29.52369 31.19638 2130 ft 161 kts 216°
2026-05-05 13:55 -29.53252 31.18865 1900 ft 158 kts 215°
2026-05-05 13:55 -29.54123 31.18102 1692 ft 157 kts 215°
2026-05-05 13:55 -29.54987 31.17345 1494 ft 156 kts 216°
2026-05-05 13:56 -29.55418 31.16968 1395 ft 157 kts 216°